Starlink 32481

operational
NORAD ID: 62320 Int'l Des: 2024-239 Owner: SPXS Country: US Constellation: starlink
LEOCIRCULAR

Starlink 32481について

説明を読み込み中...

リアルタイム位置

3D地球を読み込み中...

次回通過

高度履歴

Altitude vs Time

uPlot chart will show altitude changes over time

軌道要素

1 62320U 24239V 25260.46076150 .00036758 00000-0 92371-3 0 9991
2 62320 53.1543 267.7664 0002551 93.8418 266.2879 15.39644819 43018
Epoch: Sep 17, 2025 • Age: 24 hours

現在のステータス

高度 456.5 km
速度 7.64 km/s
衛星直下点 -28.92°S, 60.8°W
打ち上げ日 Dec 13, 2024
運用期間 0.7 years
タイプ internet

技術仕様

分類 Payload
質量 730.00 kg
乾燥質量 700.00 kg
総質量 730.00 kg
長さ 0.30 m
直径 4.10 m
スパン 29.00 m
形状 Box + pan
製造者 SPXS
バスタイプ Starlink V2M
フェーズステータス In Orbit
所有者/国 SPXS/US

大規模コンステレーション

Loading constellations...